Regional Weather Roundup
Issued by NWS

Home | Current Version | Previous Version | Text Only | Print | Product List | Glossary Off
Versions: 1 2 3 4 5 6 7 8 9 10 11 12 13 14 15 16 17 18 19 20 21 22 23 24 25 26 27 28 29 30 31 32 33 34 35 36 37 38 39 40 41 42 43 44 45 46 47 48 49 50

000
ASUS45 KABQ 282110
RWRNM
NEW MEXICO REGIONAL WEATHER ROUNDUP
NATIONAL WEATHER SERVICE ALBUQUERQUE NM
300 PM MDT FRI AUG 28 2015

NOTE: "FAIR" MEANS FEW OR NO CLOUDS BELOW 12,000 FEET AGL WITH NO
       SIGNIFICANT WEATHER OR OBSTRUCTIONS TO VISION.

      THIS PRODUCT IS RELEASED AS TWO VERSIONS.  ONE VERSION NEAR
      THE TOP OF THE HOUR CONTAINING PRELIMINARY DATA FROM ALBUQUERQUE
      AND OTHER STATIONS.  A FINAL VERSION WITH ADDITIONAL DATA IS
      ISSUED ABOUT 10 MINUTES AFTER THE HOUR.

NMZ501-503-504-510>518-282200-
NORTHWEST PLATEAU/NORTHCENTRAL MOUNTAINS

CITY           SKY/WX    TMP DP  RH WIND       PRES   REMARKS
FARMINGTON     SUNNY     89  40  17 SW8       30.16F
LOS ALAMOS     PTSUNNY   74  45  35 W3        30.32S
SANTA FE       PTSUNNY   83  43  24 N12       30.24R
TAOS           MOSUNNY   79  41  25 SE14      30.31S
ANGEL FIRE     FAIR      63  50  61 S10       30.44S

$$
NMZ402-403-502-505>509-282200-
WESTCENTRAL MOUNTAINS/SOUTHWEST MOUNTAINS

CITY           SKY/WX    TMP DP  RH WIND       PRES   REMARKS
GALLUP         MOSUNNY   86  41  20 NE13G21   30.26F
GRANTS         MOSUNNY   83  44  24 N12       30.28S
SILVER CITY      N/A     86  46  25 SE8       30.18F

$$
NMZ407-409-411-412-282200-
SOUTHERN DESERTS

CITY           SKY/WX    TMP DP  RH WIND       PRES   REMARKS
LORDSBURG      FAIR      91  48  22 NW8       30.08F
DEMING         MOSUNNY   94  50  22 NW9       30.07F
LAS CRUCES     PTSUNNY   92  48  21 SW7       30.08F
HOLLOMAN AFB   MOSUNNY   95  49  20 NW12      30.01F
ALAMOGORDO     MOSUNNY   95  48  20 SW13      30.04F
T OR C         CLOUDY    88  50  27 CALM      30.10F

$$
NMZ519>523-282200-
CENTRAL VALLEYS/CENTRAL HIGHLANDS

CITY           SKY/WX    TMP DP  RH WIND       PRES   REMARKS
ALBUQUERQUE    PTSUNNY   90  44  20 NW13      30.16F
MORIARTY ARPT  FAIR      78  51  38 W3        30.23F
CLINES CORNERS PTSUNNY   75  50  41 SE7       30.28S
BELEN          FAIR      90  46  21 NW6       30.14F
SOCORRO        FAIR      88  47  24 N9G17     30.12S

$$
NMZ524>526-539-540-282200-
SOUTHCENTRAL MOUNTAINS

CITY           SKY/WX    TMP DP  RH WIND       PRES   REMARKS
RUIDOSO        PTSUNNY   73  50  43 MISG      30.30S

$$
NMZ527>531-282200-
NORTHEAST HIGHLANDS/NORTHEAST PLAINS

CITY           SKY/WX    TMP DP  RH WIND       PRES   REMARKS
LAS VEGAS      PTSUNNY   73  49  42 NE10      30.32R
RATON          CLOUDY    80  43  26 E12       30.25R
CLAYTON        PTSUNNY   84  57  39 NE7       30.16F

$$
NMZ532>537-282200-
EASTCENTRAL PLAINS

CITY           SKY/WX    TMP DP  RH WIND       PRES   REMARKS
TUCUMCARI      SUNNY     92  55  28 E13G25    30.07F
CANNON AFB     SUNNY     90  56  30 NE10      30.07F
CLOVIS AIRPORT MOSUNNY   90  55  31 NE9       30.08F

$$
NMZ028-029-538-282200-
SOUTHEAST PLAINS

CITY           SKY/WX    TMP DP  RH WIND       PRES   REMARKS
ROSWELL        PTSUNNY   93  54  26 MISG      30.01F
ARTESIA        PTSUNNY   93  55  27 N5G12     30.01F
CARLSBAD       MOSUNNY  100  53  20 MISG      29.96F HX  98
HOBBS          TSTM      82  61  47 NE21G26   30.02R


$$


USA.gov is the U.S. government's official web portal to all federal, state and local government web resources and services.